Back to catalog

FREGAT R/B

AliveMEO
NORAD 63131·ROCKET BODY·🇷🇺 Russia

Launched Mar 2, 2025 from Plesetsk Cosmodrome

Loading…

Next Passes (next 24 hours)

TLE

FreshSource: Space-Track

Epoch: Sep 8, 2026, 20:46 UTC

1 63131U 25042B   26251.86567126  .00000031  00000-0  00000+0 0  9997
2 63131  65.1382  69.8360 0015746 194.0895 165.9157  2.13754713 11854

Track FREGAT R/B in real time with AllMySat

Download on the App Store